Total_Precipitation_Accumulation
0.00 0.00 0.00 0.00 0.00 0.00 0.00 0.00 0.00 0.00 0.00 0.00 0.00 0.00 0.00 0.00 0.00 0.00 0.00 0.00 0.00 0.00 0.00 0.00 0.00 0.00 0.00 0.00 0.00 0.00 0.00 0.00 0.00 0.00 0.00 0.00 0.00 0.00 0.00 0.00 0.04 0.01 0.00
0.00 0.00 0.00 0.00 0.00 0.00 0.00 0.00 0.00 0.00 0.00 0.00 0.00 0.00 0.00 0.00 0.00 0.00 0.00 0.00 0.00 0.00 0.00 0.00 0.00 0.00 0.00 0.00 0.00 0.00 0.00 0.00 0.00 0.00 0.00 0.00 0.00 0.00 0.00 0.00 0.03 0.01 0.00
0.00 0.00 0.00 0.00 0.00 0.00 0.00 0.00 0.00 0.00 0.00 0.00 0.00 0.00 0.00 0.00 0.00 0.00 0.00 0.00 0.00 0.00 0.00 0.00 0.00 0.00 0.00 0.00 0.00 0.00 0.00 0.00 0.00 0.00 0.00 0.01 0.00 0.00 0.00 0.00 0.00 0.00 0.00
0.00 0.00 0.00 0.00 0.00 0.00 0.00 0.00 0.00 0.00 0.00 0.00 0.00 0.00 0.00 0.00 0.00 0.00 0.00 0.00 0.00 0.00 0.00 0.00 0.00 0.00 0.00 0.00 0.00 0.00 0.00 0.00 0.00 0.00 0.01 0.03 0.01 0.00 0.00 0.00 0.00 0.00 0.00
0.00 0.00 0.00 0.00 0.00 0.00 0.00 0.00 0.00 0.00 0.00 0.00 0.00 0.00 0.00 0.00 0.00 0.00 0.00 0.00 0.00 0.00 0.00 0.00 0.00 0.00 0.00 0.00 0.00 0.00 0.00 0.00 0.00 0.00 0.00 0.01 0.01 0.01 0.00 0.00 0.00 0.00 0.00
0.00 0.00 0.00 0.00 0.00 0.00 0.00 0.00 0.00 0.00 0.00 0.00 0.00 0.00 0.00 0.01 0.01 0.00 0.00 0.00 0.00 0.00 0.00 0.00 0.00 0.00 0.00 0.00 0.00 0.00 0.01 0.01 0.00 0.00 0.00 0.01 0.02 0.04 0.01 0.00 0.00 0.00 0.00
0.00 0.00 0.00 0.00 0.00 0.00 0.00 0.00 0.00 0.00 0.00 0.00 0.00 0.00 0.00 0.01 0.01 0.01 0.00 0.00 0.00 0.00 0.00 0.00 0.00 0.00 0.00 0.00 0.00 0.00 0.00 0.00 0.01 0.02 0.04 0.06 0.08 0.09 0.06 0.04 0.04 0.03 0.02
0.00 0.00 0.00 0.00 0.00 0.00 0.00 0.00 0.00 0.00 0.00 0.00 0.00 0.00 0.00 0.00 0.00 0.00 0.00 0.00 0.01 0.02 0.01 0.00 0.00 0.00 0.00 0.00 0.00 0.00 0.00 0.00 0.00 0.00 0.01 0.06 0.12 0.13 0.16 0.13 0.09 0.07 0.06
0.00 0.00 0.00 0.00 0.00 0.00 0.00 0.01 0.00 0.00 0.00 0.00 0.00 0.00 0.00 0.00 0.00 0.00 0.00 0.00 0.01 0.02 0.02 0.02 0.01 0.00 0.00 0.00 0.00 0.00 0.00 0.00 0.00 0.01 0.01 0.01 0.03 0.04 0.12 0.13 0.09 0.08 0.07
0.00 0.00 0.00 0.00 0.00 0.00 0.00 0.00 0.01 0.01 0.01 0.01 0.00 0.00 0.00 0.00 0.00 0.01 0.01 0.01 0.01 0.01 0.02 0.03 0.03 0.03 0.03 0.03 0.03 0.02 0.01 0.00 0.00 0.00 0.00 0.01 0.03 0.07 0.13 0.11 0.06 0.06 0.05
0.00 0.00 0.00 0.00 0.00 0.00 0.00 0.00 0.00 0.00 0.00 0.00 0.01 0.01 0.00 0.01 0.04 0.05 0.08 0.12 0.09 0.05 0.04 0.03 0.05 0.07 0.06 0.03 0.05 0.10 0.08 0.01 0.01 0.00 0.00 0.01 0.04 0.11 0.14 0.10 0.07 0.04 0.03
0.00 0.00 0.00 0.00 0.00 0.00 0.00 0.00 0.00 0.00 0.00 0.00 0.01 0.04 0.03 0.03 0.05 0.03 0.10 0.14 0.10 0.06 0.03 0.03 0.10 0.07 0.02 0.01 0.12 0.35 0.17 0.04 0.03 0.04 0.03 0.03 0.05 0.10 0.12 0.09 0.06 0.04 0.02
0.00 0.00 0.00 0.00 0.00 0.00 0.00 0.00 0.00 0.00 0.01 0.02 0.02 0.02 0.05 0.05 0.04 0.02 0.03 0.04 0.07 0.06 0.04 0.07 0.12 0.03 0.01 0.01 0.05 0.14 0.13 0.05 0.04 0.06 0.11 0.13 0.13 0.10 0.09 0.06 0.04 0.03 0.01
0.00 0.00 0.00 0.00 0.00 0.01 0.01 0.01 0.01 0.02 0.02 0.03 0.06 0.05 0.07 0.06 0.04 0.02 0.02 0.01 0.03 0.04 0.09 0.07 0.06 0.05 0.05 0.03 0.03 0.05 0.09 0.13 0.07 0.09 0.17 0.15 0.07 0.05 0.06 0.05 0.02 0.01 0.01
0.00 0.00 0.00 0.00 0.00 0.01 0.01 0.02 0.01 0.01 0.01 0.01 0.05 0.05 0.06 0.04 0.02 0.02 0.01 0.00 0.01 0.04 0.09 0.08 0.06 0.05 0.05 0.05 0.04 0.02 0.02 0.05 0.08 0.10 0.16 0.10 0.05 0.04 0.04 0.04 0.03 0.02 0.01
0.00 0.00 0.00 0.00 0.00 0.01 0.01 0.01 0.01 0.01 0.01 0.01 0.02 0.03 0.05 0.04 0.03 0.03 0.02 0.02 0.01 0.01 0.02 0.05 0.07 0.08 0.08 0.11 0.06 0.02 0.02 0.01 0.04 0.06 0.06 0.14 0.14 0.04 0.04 0.02 0.03 0.03 0.03
0.00 0.00 0.01 0.01 0.02 0.02 0.02 0.03 0.02 0.02 0.02 0.05 0.06 0.07 0.09 0.10 0.12 0.12 0.11 0.07 0.05 0.07 0.09 0.08 0.07 0.08 0.06 0.07 0.06 0.06 0.05 0.04 0.03 0.05 0.05 0.09 0.12 0.06 0.05 0.03 0.04 0.05 0.05
0.02 0.02 0.03 0.04 0.05 0.07 0.08 0.11 0.11 0.11 0.13 0.17 0.20 0.18 0.19 0.22 0.25 0.30 0.23 0.15 0.16 0.23 0.25 0.24 0.22 0.19 0.16 0.15 0.14 0.15 0.12 0.10 0.06 0.05 0.05 0.05 0.05 0.03 0.07 0.12 0.08 0.05 0.08
0.02 0.05 0.08 0.13 0.16 0.20 0.27 0.33 0.34 0.31 0.30 0.29 0.29 0.24 0.21 0.23 0.26 0.29 0.21 0.19 0.29 0.34 0.33 0.31 0.24 0.27 0.26 0.25 0.25 0.23 0.16 0.10 0.06 0.06 0.06 0.04 0.04 0.03 0.02 0.11 0.06 0.06 0.11
0.04 0.10 0.17 0.24 0.28 0.28 0.26 0.29 0.30 0.30 0.30 0.29 0.24 0.19 0.15 0.15 0.19 0.28 0.25 0.23 0.30 0.33 0.33 0.41 0.40 0.41 0.36 0.32 0.25 0.14 0.07 0.07 0.07 0.05 0.04 0.04 0.03 0.01 0.01 0.02 0.09 0.11 0.16
0.04 0.07 0.10 0.12 0.11 0.09 0.10 0.11 0.13 0.16 0.21 0.23 0.22 0.18 0.14 0.13 0.18 0.30 0.29 0.29 0.31 0.33 0.34 0.41 0.44 0.43 0.34 0.38 0.34 0.14 0.05 0.03 0.03 0.02 0.02 0.01 0.01 0.01 0.01 0.01 0.03 0.07 0.21
0.01 0.01 0.02 0.02 0.02 0.01 0.01 0.03 0.04 0.07 0.10 0.11 0.12 0.13 0.11 0.13 0.18 0.23 0.24 0.25 0.28 0.31 0.32 0.33 0.37 0.39 0.34 0.45 0.40 0.29 0.15 0.06 0.03 0.02 0.03 0.04 0.04 0.05 0.05 0.04 0.03 0.06 0.15
0.00 0.00 0.01 0.01 0.01 0.01 0.01 0.01 0.02 0.03 0.04 0.04 0.05 0.06 0.07 0.11 0.15 0.16 0.16 0.20 0.25 0.27 0.30 0.34 0.42 0.49 0.40 0.42 0.48 0.44 0.32 0.19 0.14 0.09 0.12 0.16 0.16 0.16 0.14 0.11 0.09 0.10 0.16
0.00 0.00 0.00 0.00 0.01 0.01 0.01 0.01 0.02 0.03 0.03 0.03 0.03 0.04 0.06 0.08 0.08 0.09 0.12 0.22 0.29 0.35 0.39 0.38 0.41 0.46 0.44 0.40 0.42 0.43 0.42 0.39 0.32 0.18 0.12 0.15 0.18 0.19 0.18 0.15 0.12 0.12 0.15
0.00 0.00 0.00 0.00 0.00 0.01 0.02 0.02 0.02 0.02 0.01 0.02 0.03 0.05 0.05 0.05 0.05 0.05 0.05 0.11 0.22 0.31 0.34 0.35 0.34 0.38 0.40 0.38 0.36 0.36 0.39 0.42 0.39 0.30 0.17 0.13 0.14 0.14 0.14 0.13 0.10 0.08 0.08
0.00 0.00 0.00 0.00 0.00 0.00 0.02 0.03 0.03 0.03 0.03 0.03 0.04 0.06 0.07 0.06 0.05 0.04 0.05 0.08 0.12 0.15 0.18 0.23 0.25 0.27 0.27 0.28 0.28 0.32 0.33 0.34 0.37 0.40 0.33 0.23 0.16 0.15 0.16 0.15 0.15 0.10 0.07